Wind_Speed
28 28 27 26 26 26 25 25 25 25 25 24 24 24 24 23 20 19 17 16 14 12 11 11 10 15 13 3 4 9 7 9 14 12 9 8 8 6 5 7 8 7 6 8 7 5 7 8 9 10 9 11 13 9 6 7 10 13 14 13 17 21 24 25 24 23 25 23 21 29 37 33 27 26 22 18 18 15 16 18 13 10 14 17 19 22 23
30 30 29 28 28 27 26 26 25 26 26 25 25 24 24 24 22 20 19 17 15 13 12 10 9 13 9 3 7 10 6 10 14 12 11 12 11 9 9 8 6 8 8 9 8 5 7 10 11 14 13 13 13 11 10 11 11 10 11 12 14 18 22 22 23 23 21 21 22 27 34 31 25 25 22 19 19 19 20 19 15 15 20 21 20 20 22
32 32 31 30 29 28 28 27 26 27 27 26 26 25 25 25 23 20 18 17 16 13 12 12 10 9 6 8 12 14 11 14 15 12 14 14 10 10 11 9 9 10 9 9 9 8 7 7 8 11 12 11 11 10 10 13 14 11 12 13 13 16 21 21 23 23 20 21 23 27 33 32 29 24 20 23 26 24 23 23 20 18 23 26 26 22 21
34 34 34 33 32 30 30 29 28 28 27 27 27 25 25 25 23 21 19 16 14 12 13 12 9 7 8 11 13 12 10 13 13 13 16 14 11 12 12 11 12 12 11 11 12 12 11 10 7 7 9 10 11 10 8 12 13 11 13 14 13 15 18 20 23 25 24 22 23 30 34 33 32 26 21 27 33 31 28 27 25 24 25 29 31 29 27
36 36 36 36 35 33 32 31 29 29 28 28 28 26 26 25 23 24 22 18 13 11 12 11 10 12 11 12 14 10 7 12 11 12 16 14 11 12 12 12 12 11 13 14 13 13 14 13 10 9 9 10 12 11 9 11 11 9 13 15 16 18 18 20 22 24 25 23 23 34 37 32 31 30 26 30 35 34 31 30 30 30 29 30 33 34 33
37 37 36 36 35 34 33 32 31 30 29 29 28 27 25 24 24 25 22 20 17 13 13 12 12 14 13 14 16 12 9 11 9 10 17 16 13 14 13 13 12 11 14 15 14 13 13 13 12 13 13 12 12 11 10 10 9 8 13 17 19 21 20 21 23 24 26 25 26 34 36 31 32 34 32 31 34 35 34 34 34 32 31 33 34 35 36
35 34 32 32 32 31 31 31 31 30 29 29 28 27 25 24 24 22 19 19 19 17 17 13 7 10 15 17 15 10 8 5 6 9 14 13 16 16 13 12 12 12 14 14 13 12 9 10 11 12 12 12 11 10 9 10 9 8 11 16 19 19 17 18 22 24 27 29 30 32 32 30 33 36 36 35 35 35 34 35 36 36 36 36 35 34 35
30 29 28 27 27 27 28 29 30 30 29 28 27 26 25 22 21 19 17 17 19 20 20 15 8 11 19 20 14 9 7 3 2 12 13 11 15 14 10 13 14 12 12 12 12 10 7 8 9 8 10 11 10 9 9 10 10 8 10 13 14 15 15 16 19 23 26 27 29 31 32 30 32 37 39 38 37 36 35 37 39 39 39 39 38 35 33
26 26 25 24 24 24 25 25 26 26 25 25 25 23 22 21 20 20 19 18 19 20 20 18 14 11 16 19 18 16 13 11 12 19 18 15 16 15 14 15 13 12 13 11 11 11 7 7 7 6 8 10 9 10 9 9 9 8 9 10 10 13 15 15 17 21 24 23 22 24 25 26 29 33 35 34 34 36 37 39 41 41 41 40 40 39 36
26 25 24 23 22 22 22 22 21 21 21 22 22 21 21 21 21 21 21 19 18 18 19 20 16 11 11 15 16 14 11 12 16 20 19 16 17 19 19 15 12 14 13 10 11 10 8 8 7 6 7 8 7 8 8 8 8 8 9 10 9 10 12 14 16 18 20 21 20 18 17 21 26 29 30 30 33 36 38 39 40 42 43 41 40 41 40
27 26 25 24 23 22 22 21 20 20 20 21 21 20 21 23 22 22 21 19 18 19 21 22 19 14 11 10 11 11 7 9 15 16 16 17 19 22 21 16 16 17 12 9 10 10 8 9 8 7 8 8 7 7 6 7 8 7 7 10 9 8 9 12 13 14 16 19 18 16 16 22 26 28 27 27 31 35 38 39 38 40 44 44 43 42 42
29 28 27 27 26 24 24 23 23 22 21 22 21 20 22 23 23 23 21 19 20 21 23 24 23 20 16 11 9 10 9 11 15 15 15 20 23 21 19 19 20 18 12 11 11 10 9 10 9 9 8 8 8 7 7 7 8 8 7 8 8 7 8 9 10 11 13 17 19 18 19 22 26 27 27 27 28 30 33 34 35 35 40 45 45 44 44
30 30 29 29 28 27 26 25 25 24 23 23 23 21 22 23 22 23 22 20 20 22 23 24 22 22 23 18 15 12 12 15 18 13 11 20 25 20 18 20 20 17 14 13 12 11 11 11 10 10 10 10 9 8 7 8 8 9 9 7 6 7 8 9 9 9 10 13 17 19 20 22 24 27 29 28 27 26 27 29 30 30 34 41 45 46 45
30 30 29 29 28 27 26 26 25 25 25 24 24 23 22 22 23 23 23 21 21 24 23 20 19 22 24 22 19 14 12 16 21 15 11 18 23 21 21 21 18 16 16 15 14 13 13 13 12 13 13 12 10 9 8 8 7 8 9 7 6 6 7 8 9 9 9 11 13 17 19 21 23 25 27 27 27 26 26 27 28 28 29 33 38 42 44
28 28 28 28 27 26 26 25 25 25 25 25 25 24 23 23 23 24 24 22 22 24 21 19 22 24 24 22 21 18 17 19 22 19 16 18 19 21 23 21 17 16 16 15 14 14 13 13 14 14 14 13 11 9 8 7 7 8 8 8 8 7 6 7 8 8 8 9 11 14 18 19 20 21 23 26 27 26 25 25 26 28 28 28 29 33 37
28 28 27 27 27 26 25 25 25 25 26 25 25 25 25 24 23 24 24 24 24 24 22 23 26 25 23 23 23 21 19 22 24 24 20 18 19 22 23 19 17 18 16 15 15 14 13 14 14 15 16 14 12 10 7 7 7 7 7 8 9 8 8 7 6 6 7 9 10 13 16 18 19 19 20 22 23 22 22 25 28 27 27 26 26 28 31
28 28 28 27 27 27 26 26 25 25 25 25 25 25 25 25 25 24 24 25 25 23 23 25 26 24 23 26 26 24 21 22 25 23 19 16 18 21 20 18 18 19 17 16 16 15 15 15 15 16 18 15 12 10 8 8 9 8 8 9 8 9 9 8 7 7 7 9 11 14 16 18 19 19 18 18 19 19 21 25 28 28 27 27 28 29 30
29 29 29 28 27 27 26 26 26 25 25 25 25 25 25 25 25 25 25 26 24 23 26 28 26 27 30 30 28 26 24 23 23 20 17 17 16 16 18 18 19 20 19 18 17 17 17 17 17 18 18 15 13 10 8 9 9 8 9 10 9 9 10 10 9 9 9 10 13 14 15 16 17 17 15 15 17 20 22 24 26 27 27 28 29 29 31
30 30 30 29 28 28 27 25 25 24 25 26 26 25 25 24 24 24 24 26 24 24 28 28 26 30 34 31 28 28 26 24 22 17 16 19 18 16 16 16 17 18 18 18 18 18 19 20 19 18 17 15 14 11 9 10 11 9 8 9 9 10 10 10 10 10 11 12 13 12 12 13 14 15 15 15 16 20 22 23 24 26 26 27 28 28 29
31 31 30 30 29 28 27 26 25 24 25 25 25 24 23 22 23 24 24 25 25 25 28 29 29 32 32 30 30 31 28 25 23 18 17 19 18 17 17 15 14 15 16 18 19 19 20 20 17 16 16 14 12 11 11 12 12 9 9 10 10 10 11 11 11 12 13 13 13 12 10 9 11 14 15 16 16 18 20 22 23 24 26 27 27 27 28
31 31 30 30 29 28 27 26 26 25 24 24 24 24 23 22 24 26 26 26 26 27 30 32 30 29 29 30 32 32 30 28 25 21 20 18 15 17 19 17 15 16 16 17 18 17 17 17 15 15 16 13 12 12 11 10 10 9 10 12 11 9 11 11 12 13 14 14 14 13 11 10 12 13 12 13 15 16 18 20 21 22 25 26 27 27 27
30 30 30 29 28 28 27 26 26 25 24 24 24 24 24 24 25 27 27 26 25 25 30 32 29 27 29 32 33 33 33 30 25 20 19 17 15 16 18 17 16 17 16 15 15 15 14 14 14 15 14 12 12 12 10 9 10 10 11 12 11 10 11 12 12 13 14 15 15 15 13 13 13 13 12 12 14 15 17 19 19 20 22 24 25 26 26
29 28 28 28 27 27 26 26 26 25 24 24 23 24 25 25 25 26 26 25 24 24 27 29 28 28 30 31 32 32 31 28 23 20 19 19 18 17 18 19 18 17 15 13 13 13 12 13 14 14 14 13 12 11 10 10 10 10 10 10 9 10 12 12 12 12 14 15 15 15 14 14 14 15 15 15 15 16 17 18 18 19 20 21 22 23 24
28 27 27 27 27 27 26 26 25 25 24 24 24 24 25 24 23 24 26 25 25 26 28 29 27 27 28 30 32 33 31 27 24 23 23 23 20 18 20 21 19 17 14 12 12 14 14 15 15 15 15 14 12 11 11 10 9 9 10 10 9 9 12 12 11 11 12 13 14 13 13 13 14 15 16 17 17 17 17 17 18 19 19 20 20 21 21
28 27 27 27 27 27 27 25 25 24 24 24 24 24 24 24 23 24 24 24 24 24 25 25 24 25 30 32 33 33 30 26 26 28 27 25 23 23 24 22 19 18 16 14 14 15 16 16 15 15 15 13 12 13 13 10 9 10 11 10 9 9 11 12 11 10 9 10 12 12 11 12 13 14 14 16 17 17 17 18 18 19 20 20 20 20 20
28 28 27 27 27 27 27 25 24 24 24 25 25 24 24 23 23 24 23 22 23 22 20 20 22 26 31 33 33 31 29 27 28 28 25 23 26 28 26 21 19 19 18 17 17 16 16 16 16 16 16 14 12 14 14 11 10 11 11 10 9 11 13 12 11 10 9 10 10 10 10 11 11 12 13 14 15 16 17 17 18 20 21 22 21 21 21
28 28 28 28 27 27 26 25 24 24 24 24 24 24 24 24 24 23 23 22 23 22 20 20 23 26 28 31 32 31 29 29 30 27 23 24 28 28 24 22 22 21 20 20 20 18 16 16 17 17 17 14 12 15 15 12 10 12 11 9 9 11 13 12 11 10 10 10 11 11 11 12 12 13 14 14 14 15 16 16 16 18 20 21 21 21 22
28 28 28 28 27 27 26 25 24 24 24 24 24 23 24 24 24 23 23 23 23 22 20 20 23 24 26 28 29 28 28 29 28 26 24 25 29 28 25 23 23 23 21 21 21 19 18 18 18 18 16 13 13 16 16 12 11 12 12 10 10 12 14 13 12 12 11 12 13 14 14 13 14 15 15 15 14 15 16 15 15 16 17 19 20 20 21
28 28 28 28 27 27 26 25 24 23 23 23 23 23 24 24 23 23 22 22 22 21 20 22 24 24 26 27 26 25 26 26 24 23 23 23 26 28 26 22 22 24 24 22 20 19 18 19 19 16 13 13 16 17 15 12 12 13 13 11 11 13 14 15 14 14 14 14 15 16 16 15 15 15 16 16 16 16 16 16 17 17 18 19 20 21 21
28 28 28 28 27 26 25 25 24 23 23 23 23 23 23 22 21 21 21 21 22 22 22 23 24 24 25 26 25 24 24 23 22 22 22 22 23 25 25 24 24 25 25 22 20 20 19 19 18 15 13 14 17 16 15 14 14 14 13 12 12 13 14 15 16 16 15 16 17 17 18 17 17 17 17 17 18 17 17 18 19 19 20 21 22 23 23
28 27 27 27 26 25 25 25 24 23 23 23 22 22 20 20 20 21 22 21 22 23 23 24 24 24 24 25 25 24 22 21 21 22 22 22 22 22 24 26 26 25 25 23 21 20 19 19 17 15 14 16 17 16 15 15 15 15 14 13 13 13 13 15 16 17 16 16 17 19 19 18 17 18 18 18 19 19 18 19 20 21 22 22 22 23 24
27 26 26 26 25 24 24 24 23 23 23 23 21 20 19 19 21 22 21 20 20 21 22 23 24 25 24 24 23 22 20 20 20 21 21 22 21 21 24 26 26 25 24 22 21 20 20 19 17 15 15 17 17 15 15 16 15 14 14 13 13 13 13 14 15 17 18 17 18 19 20 19 19 19 19 19 19 20 20 21 21 22 23 23 23 23 24
26 26 25 24 24 23 23 23 23 23 23 22 20 18 18 19 20 20 20 20 20 20 21 22 23 23 23 22 21 20 19 20 20 20 20 22 22 22 24 26 26 24 22 22 22 22 21 20 17 15 16 17 16 15 15 15 14 13 13 14 14 14 13 13 14 15 16 17 18 19 19 19 20 21 21 20 20 21 22 22 22 21 23 24 24 24 24
25 24 24 23 23 22 22 22 22 22 21 20 18 17 18 19 19 20 20 20 20 20 20 20 21 21 22 22 20 19 19 19 19 20 21 22 22 23 24 25 24 23 23 24 23 22 21 20 17 16 17 17 16 15 15 14 13 13 13 12 13 12 11 11 12 13 14 16 17 19 19 20 21 22 22 22 23 23 24 24 23 23 22 24 24 24 24
24 24 22 22 21 21 21 21 21 21 19 17 16 17 17 17 17 17 18 19 19 18 18 19 21 21 21 21 20 19 20 20 20 21 22 22 22 24 25 25 24 23 23 23 22 21 21 19 17 16 17 16 15 15 15 13 12 12 12 10 11 11 11 11 12 13 14 15 17 18 20 21 22 22 23 24 24 24 25 25 25 24 24 25 26 26 26
23 22 21 20 20 20 20 20 20 19 17 16 16 17 17 15 15 15 16 17 17 17 18 20 21 21 20 20 20 20 20 19 20 22 23 22 23 25 25 25 24 23 23 22 21 21 21 18 17 17 16 15 15 15 14 13 12 12 11 10 10 10 11 12 13 14 14 16 17 19 20 21 22 23 24 24 25 25 25 26 26 25 26 26 27 28 28
22 21 20 19 19 18 19 19 18 17 16 16 16 16 15 14 14 15 15 16 17 18 19 19 19 20 20 19 20 21 20 18 20 23 23 23 23 25 26 25 24 22 21 21 22 21 20 18 18 17 16 16 15 14 14 14 14 13 12 11 10 11 12 13 14 15 16 17 18 20 21 22 23 23 24 24 24 25 25 26 26 27 27 27 28 29 29
21 20 19 18 18 18 18 18 17 15 15 15 15 14 14 15 15 14 15 16 17 18 18 18 18 19 20 19 21 22 21 20 22 24 24 23 23 24 26 25 23 21 21 21 21 21 19 18 18 17 17 16 15 14 14 15 15 14 13 12 10 11 13 15 16 17 17 18 20 21 21 23 24 24 24 24 24 24 25 25 26 27 28 29 30 30 31
20 19 18 17 17 17 17 17 15 14 14 15 15 15 15 14 14 14 16 16 17 17 17 17 18 19 19 19 21 23 23 22 22 23 23 23 23 23 25 25 23 21 21 20 20 20 19 18 18 17 17 17 16 15 15 16 16 15 15 14 13 14 15 17 18 19 20 20 21 21 22 24 25 25 24 25 24 24 25 26 26 27 29 30 31 31 31
19 18 17 17 17 17 16 15 15 15 15 15 15 15 14 13 14 15 15 15 15 16 16 17 18 19 19 19 22 24 24 23 22 23 24 24 22 22 24 24 23 22 21 20 19 19 19 18 17 17 17 17 16 16 16 17 16 16 16 16 16 17 18 19 20 21 21 22 22 23 24 24 25 25 25 25 25 25 26 27 27 28 29 30 31 31 31
19 18 17 16 17 17 15 15 15 15 15 16 15 14 13 14 15 14 13 13 14 15 16 17 18 18 18 19 23 24 23 22 22 23 24 23 22 23 24 23 22 21 20 19 18 19 19 19 17 16 16 16 16 16 16 17 16 16 17 18 18 19 20 21 21 22 22 23 24 25 26 26 26 25 25 25 26 26 27 28 28 28 29 29 30 31 31
18 17 17 16 16 16 16 15 16 15 15 15 14 13 13 13 13 12 12 13 14 15 16 16 17 17 17 20 25 25 22 21 22 23 23 22 22 23 24 23 21 20 19 18 18 19 19 18 16 15 16 17 16 15 16 16 16 17 18 19 20 21 22 22 22 23 23 24 24 25 27 27 27 26 26 26 27 27 28 28 29 29 29 30 30 31 31
17 17 16 16 16 16 15 16 16 15 13 12 12 11 12 12 11 11 12 13 14 14 14 15 17 17 18 22 26 26 23 21 22 22 22 21 21 22 23 22 20 19 19 19 19 19 18 17 17 16 15 16 16 16 16 17 17 17 18 19 20 21 22 23 23 23 24 24 25 26 27 28 28 27 27 27 28 28 29 29 29 29 30 31 31 32 33
16 16 16 16 16 16 15 15 15 12 11 10 11 11 11 11 11 12 13 12 12 12 13 14 15 16 18 22 26 26 23 20 20 21 22 21 21 21 21 20 20 20 20 20 20 18 17 17 16 15 14 16 17 17 17 17 17 17 18 19 20 22 23 24 24 24 24 25 26 27 28 29 29 28 28 28 29 30 30 30 30 30 31 31 32 33 34
16 16 16 16 16 15 15 14 13 11 11 12 12 12 12 12 12 12 12 12 12 12 13 13 14 16 19 22 24 24 22 20 20 21 21 20 20 19 19 19 20 20 19 19 19 17 16 17 16 15 15 16 17 17 17 16 17 17 19 20 21 23 24 24 25 26 26 26 27 28 29 29 29 29 29 29 30 30 31 31 31 31 32 32 33 34 35
15 16 16 15 14 14 12 12 13 14 15 15 14 13 12 12 12 12 13 12 12 13 14 14 14 16 19 21 22 23 23 22 21 20 20 21 20 19 18 19 19 19 18 17 16 15 16 18 18 16 15 17 18 18 18 18 18 19 20 21 22 23 25 26 27 27 27 28 29 29 29 29 30 30 30 30 31 31 31 31 32 32 33 33 34 35 36
15 15 15 14 12 11 11 13 15 16 15 14 13 12 12 12 13 13 13 13 13 14 16 16 16 17 19 21 21 22 23 23 22 21 21 21 21 20 20 20 20 19 18 16 14 14 17 18 18 16 15 17 18 19 19 19 20 20 21 22 23 24 26 27 28 28 29 29 30 30 30 30 30 30 30 31 31 31 32 32 33 33 34 34 35 36 37
15 15 14 12 12 13 15 16 16 15 13 12 12 12 12 13 13 14 14 14 14 16 17 17 18 18 18 19 20 20 21 22 23 22 21 21 21 21 20 20 18 17 16 15 15 16 18 19 17 16 17 18 19 20 21 21 21 22 23 23 24 26 28 29 30 30 30 30 31 31 31 31 31 31 31 31 31 32 32 33 34 34 35 36 36 37 38
14 13 13 13 14 16 17 16 14 13 12 12 12 12 13 13 14 14 15 15 16 17 17 17 18 18 17 18 19 20 20 21 21 22 22 22 21 21 20 19 17 17 16 17 18 19 19 18 17 18 19 20 20 21 22 22 23 23 23 24 26 28 30 32 32 31 31 31 31 31 31 32 32 31 31 31 31 32 33 33 34 35 36 37 37 38 38
13 13 13 15 16 17 16 14 13 13 14 13 12 12 13 14 16 16 16 16 16 17 16 16 17 17 17 17 19 20 20 20 21 22 22 21 21 20 20 19 18 18 19 19 19 19 18 17 17 18 20 21 22 23 23 23 24 24 25 27 29 30 32 33 33 32 32 32 32 32 32 32 32 32 32 31 32 32 33 33 34 36 37 37 37 38 38
13 13 14 16 16 16 15 14 14 14 14 14 13 13 14 15 17 18 17 16 17 17 17 17 18 19 18 18 19 20 20 21 21 21 21 21 20 20 19 18 18 19 20 20 20 19 19 18 18 19 20 22 23 23 24 24 25 26 27 29 30 31 31 32 32 33 33 33 32 32 33 33 33 33 33 32 32 32 33 33 34 36 37 37 37 38 38
13 14 16 17 17 16 15 14 14 14 14 14 14 14 15 16 17 18 17 16 17 18 18 18 18 19 20 20 21 20 21 21 21 20 20 20 20 20 19 19 19 20 20 20 21 21 19 17 18 20 22 24 24 24 24 25 26 27 28 29 29 30 32 32 32 32 33 33 32 32 33 34 34 34 33 33 32 32 33 34 35 35 36 37 37 37 37
Wind_Direction
302 302 303 304 305 306 308 309 308 309 311 312 314 315 314 315 316 314 311 307 303 296 286 288 286 284 287 279 268 283 277 251 255 269 282 285 288 273 276 306 285 254 249 256 261 245 215 207 216 228 232 248 260 251 230 240 229 232 245 240 232 231 226 221 214 199 191 188 182 177 181 185 189 188 183 183 184 182 196 203 204 230 241 232 235 245 240
299 299 300 300 301 302 303 304 305 304 306 309 310 312 312 311 311 312 313 309 297 287 281 276 271 280 287 245 255 280 272 243 248 260 270 279 293 283 274 290 271 244 249 257 265 255 230 225 222 225 232 246 263 261 241 241 242 241 250 245 234 234 236 231 221 215 206 197 187 174 174 176 171 171 180 192 196 189 189 197 205 227 235 222 217 235 241
297 297 298 297 298 299 298 299 299 299 302 304 305 309 308 306 308 309 308 300 288 280 275 269 268 273 253 227 258 278 271 253 248 252 260 269 285 283 275 278 266 258 265 269 270 268 257 252 239 238 255 278 286 277 256 253 254 244 240 242 234 231 235 231 225 224 217 205 196 179 173 170 160 159 181 198 203 204 207 214 224 234 233 219 214 226 233
294 294 295 294 294 295 294 295 295 295 297 299 302 305 302 302 305 300 295 293 287 276 267 265 268 266 241 237 260 273 270 262 249 243 255 261 264 268 269 271 268 265 266 266 271 278 280 283 280 268 280 296 298 296 288 279 279 266 249 243 234 233 235 230 228 231 228 219 200 179 171 168 166 172 189 196 200 209 211 213 225 232 227 219 221 227 227
292 292 292 292 291 291 290 291 291 291 292 294 298 299 297 299 298 293 295 299 290 273 267 264 254 249 246 251 264 264 261 275 268 245 249 254 255 264 269 271 273 267 263 265 268 273 279 287 292 287 286 287 287 295 304 299 299 283 257 245 233 231 231 227 226 226 228 228 206 183 175 173 179 186 191 192 197 204 203 205 218 225 220 219 224 228 228
291 291 292 291 289 288 287 287 287 287 287 289 292 293 293 292 289 291 299 299 289 273 264 262 253 255 260 262 268 267 252 267 281 255 250 250 251 257 259 262 268 262 261 270 277 277 278 283 287 286 285 286 287 298 311 305 296 278 261 252 243 239 234 228 226 222 223 226 209 189 181 180 186 190 191 193 196 199 202 206 214 218 216 217 220 225 230
292 292 293 292 291 288 286 285 284 283 283 284 287 288 287 287 289 295 299 292 287 281 269 261 246 256 263 263 270 270 246 266 311 270 252 241 240 249 257 260 265 264 265 275 283 285 286 282 284 286 285 287 289 295 305 296 287 286 272 258 251 251 245 234 230 226 226 227 218 207 199 191 190 194 195 195 197 200 203 203 207 214 216 216 215 221 230
293 295 296 296 295 291 288 286 283 281 280 279 282 284 285 288 289 288 286 278 278 281 277 272 255 237 240 245 256 257 224 182 264 257 249 234 234 243 251 252 256 262 268 275 280 283 289 286 288 291 287 289 289 285 288 285 283 288 280 264 252 251 249 240 231 225 226 229 224 221 218 207 199 200 198 196 199 205 205 201 203 211 216 218 218 222 229
293 296 297 297 297 295 292 290 286 282 279 277 280 283 284 283 278 275 276 271 270 275 275 274 270 247 232 236 250 259 241 213 226 247 255 251 241 239 244 249 257 264 261 266 277 281 285 286 293 297 290 294 295 282 273 270 276 289 293 281 257 244 242 240 235 227 224 226 223 223 226 221 213 209 204 202 207 210 208 204 205 210 215 219 222 225 228
291 293 294 293 295 295 295 294 289 284 279 277 281 282 279 274 271 271 271 266 264 263 257 259 264 255 236 233 243 260 253 231 241 255 263 260 245 239 245 251 255 258 256 260 274 281 284 284 292 299 296 305 309 294 276 265 271 287 296 291 272 245 237 238 240 234 228 223 215 212 220 226 225 223 217 215 218 216 212 211 210 212 214 217 222 227 229
287 287 288 288 289 290 291 291 288 284 281 279 281 280 276 272 268 268 268 263 257 251 246 251 251 240 235 234 244 263 260 242 255 263 267 266 252 240 242 246 246 250 255 258 262 269 276 280 287 291 294 305 312 310 300 276 270 277 289 290 278 250 238 241 240 236 231 223 212 205 211 220 227 232 231 225 223 221 217 217 219 219 217 217 221 226 229
284 284 284 284 285 286 286 286 284 283 281 280 281 279 275 274 270 268 268 262 252 247 246 247 245 240 240 227 221 247 248 241 257 266 261 256 249 239 235 238 243 247 250 250 253 260 267 272 280 284 286 294 299 310 318 299 284 281 281 286 279 249 233 239 241 235 233 228 218 212 215 222 227 231 234 232 230 228 223 219 221 223 221 220 222 224 227
285 284 284 283 283 284 284 284 283 282 280 278 279 278 274 273 271 267 266 261 252 248 247 248 252 258 255 236 220 236 248 245 253 265 258 245 244 242 236 235 239 243 245 247 251 256 261 266 272 276 277 282 289 301 310 304 298 289 276 275 279 255 236 239 243 236 232 233 228 220 218 224 228 229 233 236 238 239 233 222 218 221 221 222 224 227 229
286 286 285 284 284 283 284 284 282 281 280 279 278 277 273 270 267 263 261 258 251 248 247 245 251 257 253 242 232 229 233 246 256 263 254 241 238 238 237 237 239 241 243 247 250 252 259 265 268 270 272 277 282 286 286 289 296 293 281 274 274 265 253 249 246 238 233 234 233 227 223 226 229 231 234 237 239 242 240 228 221 222 224 224 227 230 231
287 287 286 285 285 284 284 284 283 281 281 280 278 277 273 269 265 262 260 256 249 248 244 234 235 240 239 239 240 229 219 235 253 258 253 244 236 234 237 237 237 239 241 243 247 251 258 263 267 270 272 274 274 273 276 282 283 280 278 275 269 264 260 256 249 242 235 233 234 232 231 234 235 234 235 237 238 242 243 238 232 229 228 228 229 231 231
286 286 286 285 285 286 285 285 285 283 282 281 279 276 273 270 267 263 260 256 250 247 242 234 235 237 234 233 239 238 225 226 240 251 256 250 235 233 238 238 234 237 238 238 242 248 254 260 266 270 270 272 270 265 263 267 267 266 269 273 269 260 255 254 252 244 234 231 231 231 234 241 244 243 241 239 240 243 246 245 243 237 231 230 232 233 233
285 285 286 286 286 286 287 286 285 284 283 281 279 276 272 270 267 262 259 257 253 247 240 236 234 233 230 226 228 236 235 230 237 252 263 256 238 236 241 238 233 236 235 235 240 244 249 258 264 266 267 269 267 260 254 253 257 261 262 262 261 259 255 247 243 243 239 235 233 231 234 239 244 250 253 250 247 248 248 248 247 243 238 237 238 238 239
285 285 286 286 286 287 287 286 285 283 282 281 279 277 272 268 266 263 260 258 254 244 237 237 232 226 225 222 223 234 240 238 242 253 260 251 237 236 240 236 232 235 235 236 239 242 247 254 258 262 267 267 263 258 252 251 253 254 256 254 252 255 254 247 247 251 248 242 239 237 239 242 244 251 258 261 257 253 250 249 248 246 244 245 246 245 246
284 285 285 286 287 287 287 285 284 283 282 281 279 277 273 270 269 268 264 262 256 244 239 240 234 228 228 227 229 236 238 242 250 257 252 241 230 229 238 236 231 234 235 237 240 242 246 250 253 258 262 259 259 260 257 255 256 254 250 249 250 251 251 250 256 261 256 251 249 248 247 248 250 251 256 263 263 256 252 251 251 251 252 252 251 251 251
283 284 285 286 286 286 286 285 285 284 282 280 279 277 273 271 272 271 265 262 256 243 239 240 234 228 231 233 236 240 242 245 253 259 254 244 230 226 235 237 233 234 234 235 238 239 242 247 251 256 255 249 249 252 251 254 261 264 260 255 254 257 259 258 257 260 261 261 261 263 265 263 260 258 259 264 264 260 257 256 254 255 257 255 254 254 255
282 283 284 285 285 285 285 286 286 285 282 280 278 275 270 267 269 270 267 261 252 237 235 241 237 228 230 234 236 241 243 244 249 256 260 256 239 229 235 237 237 238 236 234 238 240 244 247 247 248 249 245 240 241 245 254 263 267 269 270 269 266 265 264 260 260 264 266 266 268 270 267 264 263 266 271 270 265 262 258 257 258 259 258 257 257 257
281 282 282 283 283 284 285 286 285 284 282 279 275 273 271 265 264 268 272 273 264 244 239 247 242 227 227 232 234 239 243 246 253 264 268 265 253 237 236 236 237 238 236 233 236 238 241 245 246 245 248 249 249 251 251 256 261 264 270 278 283 280 272 268 263 260 259 259 261 263 265 265 266 266 266 269 269 267 263 260 259 260 261 261 260 260 260
281 281 281 281 282 283 284 284 284 283 281 278 274 272 272 270 268 269 270 276 277 265 257 256 245 226 225 231 234 238 242 244 250 258 258 254 249 238 235 235 236 239 239 236 236 236 235 238 240 242 243 243 247 252 254 257 262 268 271 274 279 282 276 270 265 261 259 260 261 263 265 267 268 266 266 266 265 264 265 264 262 261 262 262 261 262 263
281 281 281 282 283 284 284 283 283 282 280 278 275 272 272 274 275 273 269 270 275 272 263 256 242 225 222 227 231 236 239 238 240 244 245 244 242 238 236 235 234 238 241 236 231 229 229 232 234 237 241 243 245 250 254 259 265 270 273 272 270 270 269 266 265 267 268 269 269 268 268 268 268 268 270 271 268 266 266 267 266 265 265 264 263 263 265
281 281 281 282 284 285 285 284 282 281 280 278 275 274 274 274 275 275 272 270 274 273 262 252 238 221 220 224 228 233 236 238 240 241 242 244 244 239 236 234 231 233 236 234 230 227 227 232 234 237 243 245 245 248 251 253 261 267 271 273 270 264 265 269 274 278 279 279 278 276 275 274 273 273 275 275 274 271 269 268 268 268 270 270 268 266 267
281 281 282 284 285 285 284 283 282 280 279 278 276 274 274 274 275 276 273 269 269 268 262 251 235 224 222 224 226 228 230 234 239 240 239 242 244 240 235 232 230 230 231 232 233 229 229 233 237 242 247 248 249 256 259 260 264 269 273 276 274 269 268 271 277 283 287 287 285 282 280 279 278 277 274 273 275 276 273 271 269 269 271 273 273 271 270
280 281 283 284 285 285 284 282 281 279 278 277 276 274 272 271 272 274 272 267 264 263 259 248 238 232 229 226 225 225 226 229 235 238 238 239 242 241 235 228 226 228 229 230 230 227 227 233 236 242 248 248 249 256 262 265 268 273 277 280 276 272 272 272 273 278 284 286 283 281 279 279 281 280 278 276 277 279 280 278 275 274 273 274 275 276 275
279 281 282 284 284 283 283 282 281 280 279 276 275 274 273 271 270 270 270 267 262 258 251 239 232 230 229 228 228 228 228 231 235 238 238 239 239 237 230 222 221 225 228 229 229 226 227 230 235 240 246 248 246 251 259 265 268 272 277 278 270 269 273 276 275 277 279 278 278 279 279 280 281 280 279 279 278 278 281 281 278 277 277 277 277 277 277
277 279 281 282 283 283 283 283 282 280 279 278 277 275 272 269 267 267 268 266 262 254 241 232 228 224 221 223 225 228 230 232 234 237 236 235 236 233 226 217 215 221 225 226 227 228 227 230 235 241 246 246 247 251 259 265 267 272 278 278 269 265 269 273 276 277 276 275 277 278 278 280 281 280 280 280 278 278 280 280 278 275 275 275 276 276 275
275 277 279 280 282 283 283 284 283 281 280 280 279 276 272 268 265 264 262 260 258 249 236 228 226 224 221 220 219 221 225 228 231 234 235 234 234 231 222 213 214 219 222 223 224 227 227 229 234 239 242 243 247 253 259 263 267 272 277 280 276 270 271 276 279 279 277 277 279 280 279 279 280 281 281 281 279 278 278 277 276 275 274 274 274 274 275
273 275 277 278 280 282 283 284 285 285 284 283 281 276 269 262 258 257 256 256 255 247 236 227 223 222 222 220 219 221 226 229 231 234 234 234 234 228 217 212 214 218 220 221 223 226 227 229 234 239 242 244 247 252 257 262 267 271 276 281 280 277 275 278 281 283 283 282 280 281 282 283 283 282 280 279 279 279 279 278 279 279 279 277 276 276 277
271 273 274 276 278 280 283 285 286 287 287 287 283 277 268 259 256 257 256 254 251 244 235 227 221 220 220 218 218 222 227 230 233 234 232 232 230 223 214 211 212 215 218 221 224 227 227 230 234 238 241 244 247 251 257 263 268 274 280 282 279 276 276 278 281 283 285 285 283 283 286 287 286 282 279 277 277 278 279 281 283 284 283 283 282 281 280
269 270 272 274 277 279 282 285 287 288 289 287 283 277 268 261 259 258 256 251 245 238 231 224 220 219 218 217 217 222 226 229 232 231 229 229 226 218 212 210 210 212 216 220 222 224 226 229 233 236 238 242 246 251 257 263 267 273 277 278 279 280 280 280 281 283 286 288 289 290 290 289 286 284 281 279 278 278 280 281 282 284 285 285 284 284 284
267 268 270 272 276 280 284 287 289 288 287 284 278 270 263 259 256 254 251 246 239 232 226 221 217 216 217 216 217 223 228 228 228 226 226 226 222 214 210 210 208 209 215 219 220 221 225 229 234 238 240 241 245 251 257 262 268 272 275 279 283 284 285 286 289 291 292 293 295 296 295 293 289 286 285 283 280 280 282 284 284 285 285 285 285 284 284
265 266 268 272 276 280 285 289 289 287 284 279 271 263 259 257 255 252 247 242 234 226 221 216 213 214 216 214 213 220 226 224 221 222 223 222 217 210 208 209 208 210 216 219 220 222 227 232 237 241 243 242 245 253 259 263 268 272 274 275 276 279 285 291 294 295 296 297 299 300 300 298 295 291 287 285 283 283 282 283 285 287 288 288 287 286 285
263 265 267 271 276 282 287 289 288 285 278 268 262 261 259 255 251 246 242 236 228 220 216 215 213 214 216 214 212 217 223 221 217 217 219 217 212 209 208 208 209 211 216 220 221 222 227 233 240 245 246 245 247 255 264 268 267 268 268 267 270 278 287 293 296 299 302 304 306 307 306 303 299 295 290 286 285 284 283 283 285 286 287 288 288 288 287
261 263 267 272 277 283 287 287 284 278 270 264 263 263 260 253 247 241 235 230 224 217 215 214 213 214 217 216 213 213 215 214 214 216 216 213 210 209 209 210 211 213 216 220 222 223 226 234 241 246 247 247 249 255 262 264 264 265 266 266 271 282 291 296 300 303 306 308 311 313 311 307 301 296 292 288 286 284 284 284 285 286 286 287 287 287 287
259 262 266 271 278 282 283 282 278 271 264 260 259 256 251 247 242 236 230 226 223 220 216 214 213 215 217 216 213 212 211 210 211 212 212 209 208 209 210 211 212 214 217 221 223 225 227 234 242 246 247 247 249 252 256 260 264 268 271 273 278 288 296 301 304 306 308 312 316 317 314 309 304 299 294 290 287 285 285 285 286 288 289 289 289 288 287
258 261 265 269 275 279 278 275 271 265 259 254 250 248 246 243 238 232 228 224 221 219 217 216 216 219 220 214 210 211 214 215 212 210 208 206 207 210 213 214 215 218 220 222 225 228 230 234 241 246 248 249 252 254 255 258 262 267 272 275 281 290 297 302 305 307 309 312 316 317 314 309 306 301 296 291 288 287 286 286 288 289 290 290 290 289 287
257 259 263 268 273 275 273 267 263 259 256 252 250 249 244 237 232 229 227 225 223 220 218 217 219 221 220 213 208 209 213 215 213 210 208 207 207 210 214 216 219 222 224 225 226 231 236 239 241 245 248 251 254 257 258 259 262 268 274 279 285 292 298 301 304 307 309 310 312 314 313 309 305 300 295 291 289 287 287 288 290 291 291 290 290 289 288
256 258 263 268 272 273 268 261 256 255 254 253 252 249 240 231 229 227 225 224 223 221 219 220 222 223 220 212 208 208 210 211 211 211 210 210 210 211 213 216 218 221 224 226 228 233 238 241 241 243 249 253 257 259 262 263 267 272 277 282 287 291 295 298 301 303 304 306 309 311 310 309 306 300 294 291 289 288 290 291 293 293 293 292 291 290 289
255 258 262 268 272 272 265 255 252 253 255 254 250 242 232 226 226 225 223 221 220 219 219 222 224 223 216 208 205 206 208 208 208 209 211 211 213 215 217 219 221 222 224 227 229 232 238 243 244 244 249 255 258 260 261 264 269 273 276 280 286 290 294 296 298 299 300 303 306 308 309 308 305 300 294 291 289 289 291 293 294 295 295 293 292 291 289
254 258 263 268 271 269 261 253 251 254 256 251 239 227 223 222 222 221 222 221 220 220 222 223 222 218 211 205 203 205 207 208 208 209 212 213 214 217 220 223 225 227 228 230 232 233 237 242 243 242 244 251 256 259 262 267 271 275 279 285 290 294 294 294 294 296 298 300 303 305 307 307 304 299 294 291 290 291 292 293 294 295 295 294 293 292 290
253 258 263 268 271 267 259 253 251 250 245 235 223 215 216 219 218 217 219 218 216 216 218 220 218 213 208 206 204 205 207 211 211 211 212 214 216 219 222 224 226 229 230 232 235 236 238 241 240 239 242 251 258 264 270 276 280 283 287 292 295 295 295 295 295 296 297 299 301 304 305 305 303 300 295 292 291 291 291 292 292 293 293 293 293 292 292
252 257 263 269 271 265 254 246 240 230 219 215 213 212 213 216 216 214 213 212 211 210 210 209 207 205 205 207 206 205 207 212 214 212 212 213 217 221 223 224 226 229 230 232 235 237 241 244 244 242 246 255 264 270 277 281 284 286 290 294 297 298 298 298 297 296 296 297 299 301 303 303 301 298 294 291 290 289 290 290 291 291 292 293 294 295 295
251 257 264 270 269 260 247 232 221 213 208 208 210 210 211 213 213 210 207 205 205 205 203 200 201 204 206 207 207 207 209 213 216 216 214 216 219 222 224 226 229 231 232 233 235 237 241 245 247 246 249 256 263 270 276 281 284 288 291 295 298 300 300 299 298 297 297 297 298 299 301 301 299 296 293 290 288 288 289 289 290 291 293 294 296 297 298
250 257 265 267 259 243 226 216 213 210 209 210 211 210 210 211 211 209 207 205 203 202 200 198 200 204 207 207 209 210 212 216 219 220 220 221 223 224 225 228 232 235 237 239 240 241 243 246 249 250 252 257 264 271 278 282 285 287 289 293 295 297 299 300 300 298 296 296 296 298 300 301 300 298 295 292 291 290 290 290 291 293 294 295 297 298 299
251 258 261 255 238 223 216 214 213 210 209 211 211 209 209 210 209 208 210 208 205 204 204 203 204 207 207 208 211 214 216 218 222 223 224 226 227 228 229 232 235 239 242 243 242 243 244 247 251 255 257 261 266 271 276 279 281 283 285 288 291 294 297 299 299 298 296 295 296 297 300 302 302 301 298 295 294 293 293 293 294 295 296 296 297 298 299
253 258 254 240 226 218 216 213 209 207 209 212 211 208 208 208 206 208 212 211 207 206 207 207 208 210 210 210 214 216 218 220 223 226 227 229 232 234 236 237 239 242 243 242 242 245 248 250 254 258 260 263 265 267 271 274 278 281 285 287 289 292 295 298 298 298 297 296 296 298 301 302 303 302 300 298 296 295 295 295 295 296 296 297 298 298 299
254 253 244 231 223 219 215 211 208 209 211 210 208 206 207 207 207 209 211 212 211 212 212 211 211 213 212 213 217 220 220 222 225 227 229 231 234 238 239 239 240 241 242 242 243 247 252 255 256 257 260 262 264 267 271 276 280 283 287 289 290 292 295 297 298 298 298 297 298 299 301 303 304 304 303 301 299 297 297 296 296 296 297 297 298 299 298
252 244 233 223 218 214 209 207 211 215 215 210 205 205 208 211 212 211 211 212 215 216 216 214 214 214 215 218 224 226 225 224 226 228 228 230 233 237 240 241 242 243 244 245 247 250 252 256 259 261 262 263 265 269 274 278 282 285 287 289 291 293 296 297 298 298 298 298 298 299 301 304 305 305 304 303 301 299 298 298 298 298 298 299 299 299 299
243 231 222 215 210 207 204 204 210 216 217 213 210 209 211 213 215 216 215 215 217 220 220 219 216 216 219 225 230 230 228 227 229 231 231 232 234 237 240 241 243 245 245 246 249 251 252 256 260 262 262 264 268 273 277 281 284 287 289 292 294 296 297 298 298 298 297 297 297 298 301 303 305 306 305 304 303 302 301 301 300 300 300 300 300 299 299
Height
5846 5845 5844 5843 5842 5841 5840 5838 5837 5835 5834 5833 5832 5830 5829 5828 5828 5827 5826 5825 5824 5823 5822 5822 5821 5820 5820 5821 5821 5820 5820 5821 5820 5820 5820 5820 5819 5820 5819 5818 5818 5818 5818 5817 5817 5816 5816 5817 5817 5816 5816 5815 5815 5816 5817 5816 5816 5816 5817 5818 5820 5820 5821 5823 5825 5826 5826 5828 5830 5833 5837 5839 5841 5844 5849 5854 5855 5856 5859 5861 5863 5864 5865 5866 5865 5864 5865
5843 5842 5841 5840 5839 5838 5836 5835 5834 5832 5831 5830 5829 5828 5826 5825 5825 5825 5823 5823 5822 5821 5820 5820 5820 5819 5818 5820 5820 5819 5819 5819 5818 5819 5819 5818 5818 5819 5818 5817 5817 5817 5816 5816 5816 5816 5815 5815 5815 5815 5814 5814 5814 5815 5815 5814 5814 5816 5816 5817 5818 5819 5820 5822 5824 5825 5826 5828 5830 5832 5834 5837 5841 5844 5848 5851 5852 5854 5856 5857 5859 5859 5858 5859 5860 5860 5862
5839 5838 5837 5836 5836 5834 5833 5832 5831 5829 5828 5827 5826 5825 5824 5822 5822 5822 5822 5821 5820 5819 5818 5817 5818 5817 5818 5819 5819 5817 5817 5817 5817 5818 5817 5817 5818 5817 5817 5817 5816 5815 5816 5815 5815 5815 5814 5814 5814 5814 5813 5813 5813 5813 5813 5813 5813 5814 5815 5815 5816 5817 5817 5819 5822 5824 5825 5827 5829 5831 5833 5836 5840 5841 5842 5844 5846 5847 5849 5851 5854 5854 5852 5854 5857 5857 5859
5835 5834 5833 5832 5832 5831 5829 5829 5828 5827 5825 5824 5823 5822 5821 5819 5819 5819 5819 5818 5817 5816 5815 5815 5816 5815 5815 5817 5816 5815 5815 5814 5815 5816 5815 5816 5817 5816 5815 5815 5815 5814 5814 5814 5814 5813 5813 5812 5813 5812 5812 5812 5812 5812 5812 5812 5812 5814 5814 5814 5814 5814 5815 5817 5819 5821 5824 5825 5827 5829 5831 5833 5834 5833 5832 5836 5840 5843 5846 5849 5851 5851 5850 5851 5853 5853 5855
5831 5829 5829 5828 5827 5826 5825 5825 5824 5823 5822 5820 5819 5819 5817 5817 5816 5814 5814 5815 5815 5814 5813 5814 5814 5813 5813 5814 5814 5814 5813 5812 5813 5814 5813 5814 5815 5814 5814 5813 5813 5814 5813 5812 5813 5812 5811 5811 5811 5811 5811 5811 5810 5811 5811 5811 5811 5812 5812 5812 5811 5811 5812 5814 5816 5818 5820 5822 5824 5826 5827 5828 5830 5829 5829 5833 5838 5841 5844 5846 5844 5844 5845 5846 5847 5849 5851
5826 5824 5824 5823 5822 5822 5821 5820 5820 5819 5818 5817 5816 5815 5814 5814 5812 5811 5812 5813 5812 5812 5811 5812 5813 5812 5812 5812 5811 5812 5813 5812 5812 5811 5810 5812 5813 5812 5812 5812 5812 5812 5811 5811 5811 5811 5810 5810 5810 5810 5809 5809 5809 5809 5809 5809 5809 5810 5809 5809 5809 5809 5810 5811 5812 5814 5815 5818 5821 5823 5824 5826 5827 5827 5828 5830 5834 5837 5838 5839 5839 5840 5841 5842 5844 5846 5846
5821 5820 5819 5818 5817 5817 5816 5816 5815 5815 5814 5813 5812 5811 5811 5811 5810 5810 5811 5810 5810 5810 5808 5808 5811 5811 5811 5810 5809 5810 5812 5811 5811 5810 5808 5809 5810 5810 5811 5811 5810 5810 5809 5809 5809 5809 5809 5809 5808 5808 5807 5807 5808 5808 5808 5808 5808 5808 5807 5807 5807 5808 5809 5809 5810 5812 5813 5814 5818 5821 5822 5824 5825 5825 5825 5826 5829 5830 5831 5834 5837 5839 5839 5839 5842 5843 5843
5817 5815 5814 5814 5813 5812 5811 5811 5810 5810 5810 5809 5808 5808 5808 5808 5808 5807 5808 5807 5807 5807 5806 5806 5808 5809 5808 5807 5807 5808 5810 5810 5810 5808 5807 5807 5807 5808 5809 5809 5808 5808 5808 5808 5808 5808 5808 5807 5807 5807 5806 5806 5806 5807 5807 5806 5806 5806 5805 5805 5806 5806 5807 5807 5807 5809 5811 5812 5815 5818 5819 5821 5822 5822 5822 5823 5824 5825 5827 5831 5834 5836 5837 5838 5839 5840 5842
5813 5812 5811 5810 5809 5809 5807 5807 5806 5805 5806 5805 5805 5805 5805 5805 5804 5804 5804 5805 5805 5805 5805 5805 5805 5805 5806 5806 5805 5806 5807 5807 5806 5805 5805 5805 5806 5806 5806 5806 5807 5807 5807 5807 5807 5807 5807 5807 5806 5806 5806 5805 5805 5805 5805 5805 5805 5804 5803 5803 5804 5804 5804 5805 5806 5807 5808 5810 5813 5815 5816 5818 5819 5819 5821 5822 5822 5823 5825 5828 5830 5833 5835 5836 5837 5838 5840
5809 5808 5807 5806 5806 5805 5804 5803 5802 5802 5802 5801 5801 5802 5802 5801 5801 5800 5801 5802 5803 5803 5803 5802 5803 5803 5804 5805 5804 5804 5805 5805 5803 5802 5802 5803 5804 5803 5803 5805 5805 5805 5805 5806 5806 5806 5806 5806 5805 5805 5805 5805 5804 5804 5804 5804 5803 5803 5802 5802 5802 5802 5803 5804 5804 5806 5807 5808 5810 5812 5814 5815 5817 5819 5821 5822 5821 5821 5824 5826 5828 5830 5832 5834 5835 5835 5837
5805 5804 5803 5803 5802 5802 5801 5800 5799 5798 5798 5798 5798 5799 5798 5797 5797 5797 5797 5799 5800 5800 5800 5800 5801 5801 5801 5802 5802 5802 5802 5801 5800 5800 5800 5800 5800 5800 5801 5803 5803 5802 5804 5805 5805 5805 5805 5805 5805 5804 5804 5804 5804 5803 5803 5802 5802 5802 5802 5801 5800 5801 5802 5802 5803 5804 5806 5806 5808 5810 5811 5813 5814 5816 5818 5819 5819 5819 5821 5823 5825 5827 5829 5830 5831 5832 5834
5801 5800 5799 5799 5798 5798 5797 5797 5796 5795 5795 5794 5794 5794 5794 5794 5794 5794 5794 5795 5796 5796 5797 5797 5797 5797 5798 5799 5799 5799 5800 5799 5797 5797 5799 5797 5796 5797 5799 5800 5800 5801 5803 5803 5803 5804 5804 5804 5804 5803 5803 5803 5803 5802 5802 5801 5801 5801 5801 5800 5800 5800 5800 5801 5802 5803 5804 5805 5806 5808 5809 5811 5812 5812 5814 5815 5815 5816 5819 5822 5823 5825 5826 5827 5828 5829 5831
5796 5795 5795 5794 5794 5794 5793 5793 5792 5791 5791 5790 5790 5790 5790 5790 5790 5790 5791 5792 5793 5793 5793 5794 5795 5795 5794 5794 5795 5796 5797 5796 5794 5795 5796 5795 5794 5796 5797 5797 5798 5799 5800 5801 5801 5802 5802 5802 5802 5802 5802 5802 5802 5802 5801 5801 5800 5800 5799 5799 5799 5799 5799 5800 5801 5802 5803 5804 5805 5806 5807 5807 5808 5809 5810 5812 5813 5815 5817 5819 5820 5822 5823 5825 5826 5827 5829
5791 5791 5790 5789 5789 5789 5789 5789 5788 5788 5787 5787 5786 5786 5786 5786 5786 5786 5787 5788 5789 5788 5790 5792 5794 5793 5791 5791 5792 5793 5794 5792 5791 5793 5794 5792 5792 5794 5794 5794 5796 5797 5798 5799 5800 5800 5801 5801 5801 5801 5801 5801 5801 5801 5800 5800 5800 5799 5799 5798 5798 5798 5799 5799 5799 5800 5801 5802 5803 5804 5805 5804 5805 5807 5808 5809 5811 5812 5813 5815 5818 5819 5819 5822 5824 5825 5826
5787 5786 5786 5785 5785 5785 5785 5785 5784 5784 5783 5783 5782 5782 5782 5781 5782 5782 5783 5784 5784 5785 5787 5789 5789 5787 5788 5789 5790 5791 5791 5790 5788 5790 5790 5789 5790 5791 5791 5792 5794 5795 5795 5797 5797 5798 5799 5799 5799 5799 5799 5800 5800 5800 5799 5799 5799 5799 5798 5798 5798 5798 5798 5798 5799 5799 5800 5801 5801 5802 5802 5802 5803 5805 5806 5807 5809 5810 5811 5812 5814 5815 5816 5820 5822 5821 5822
5783 5782 5782 5781 5781 5781 5781 5781 5780 5780 5779 5779 5778 5778 5777 5777 5777 5778 5779 5780 5780 5781 5783 5783 5783 5784 5786 5787 5787 5787 5788 5787 5786 5786 5786 5787 5788 5788 5788 5791 5792 5792 5793 5794 5795 5796 5797 5797 5797 5797 5797 5797 5798 5798 5798 5798 5798 5798 5798 5797 5797 5798 5797 5797 5798 5798 5799 5799 5800 5800 5801 5801 5801 5803 5804 5805 5807 5808 5808 5808 5809 5811 5815 5818 5818 5818 5818
5779 5778 5777 5777 5776 5776 5777 5777 5776 5776 5775 5774 5774 5774 5773 5773 5773 5773 5774 5776 5777 5778 5778 5778 5780 5782 5783 5783 5782 5783 5784 5783 5783 5783 5784 5784 5785 5786 5787 5788 5789 5789 5791 5792 5793 5794 5794 5795 5795 5795 5794 5796 5797 5797 5797 5797 5797 5797 5797 5796 5796 5797 5797 5796 5796 5796 5797 5797 5797 5798 5798 5799 5800 5801 5802 5804 5804 5805 5805 5805 5806 5809 5813 5814 5814 5815 5815
5774 5773 5773 5773 5772 5772 5772 5772 5772 5772 5771 5770 5770 5769 5769 5769 5769 5769 5770 5771 5773 5774 5773 5773 5776 5777 5776 5776 5778 5779 5780 5780 5780 5781 5781 5782 5783 5784 5784 5785 5786 5787 5788 5789 5790 5791 5792 5792 5793 5793 5793 5794 5795 5795 5795 5795 5796 5796 5796 5795 5795 5795 5795 5795 5795 5795 5796 5795 5795 5796 5797 5798 5799 5800 5801 5801 5802 5802 5803 5803 5804 5807 5809 5809 5810 5812 5812
5770 5769 5768 5768 5768 5768 5768 5768 5768 5768 5767 5766 5765 5765 5765 5764 5765 5766 5767 5768 5770 5770 5768 5769 5772 5772 5771 5773 5775 5776 5776 5776 5777 5779 5779 5778 5780 5781 5782 5782 5783 5784 5786 5787 5787 5789 5789 5790 5790 5791 5792 5792 5792 5793 5793 5793 5793 5794 5794 5794 5794 5794 5794 5794 5794 5794 5794 5794 5794 5795 5796 5797 5798 5798 5799 5799 5799 5800 5800 5801 5802 5804 5805 5805 5807 5808 5809
5765 5765 5764 5764 5763 5763 5763 5763 5763 5763 5762 5761 5761 5761 5761 5761 5761 5762 5763 5764 5766 5765 5764 5765 5767 5768 5769 5772 5773 5772 5773 5774 5775 5776 5776 5775 5777 5779 5779 5781 5781 5782 5783 5784 5784 5785 5786 5787 5789 5789 5790 5790 5791 5791 5791 5791 5791 5792 5792 5792 5793 5793 5793 5793 5793 5793 5793 5793 5794 5794 5795 5796 5796 5796 5797 5797 5797 5797 5798 5799 5801 5801 5801 5801 5804 5806 5806
5760 5760 5760 5759 5759 5759 5759 5759 5759 5759 5758 5757 5757 5757 5757 5757 5757 5758 5758 5759 5760 5761 5759 5759 5762 5766 5768 5769 5769 5769 5770 5771 5773 5773 5773 5774 5776 5777 5778 5779 5780 5780 5780 5781 5782 5783 5784 5786 5787 5788 5787 5788 5789 5789 5789 5789 5790 5790 5790 5790 5791 5792 5792 5791 5792 5792 5792 5792 5792 5793 5794 5794 5794 5795 5795 5795 5795 5796 5796 5797 5799 5799 5798 5799 5801 5802 5803
5756 5755 5755 5755 5755 5755 5754 5754 5754 5754 5754 5753 5753 5752 5752 5753 5753 5754 5754 5755 5756 5756 5755 5755 5759 5763 5763 5764 5765 5766 5767 5769 5770 5771 5772 5773 5775 5775 5776 5777 5777 5777 5778 5779 5780 5781 5783 5784 5786 5786 5787 5788 5788 5788 5788 5788 5788 5789 5789 5788 5789 5790 5790 5790 5791 5791 5791 5791 5791 5791 5792 5793 5793 5793 5794 5794 5794 5794 5794 5795 5796 5796 5795 5796 5798 5799 5800
5751 5751 5751 5750 5750 5750 5750 5750 5750 5749 5749 5749 5748 5748 5748 5748 5749 5750 5751 5751 5752 5752 5751 5752 5755 5758 5759 5760 5762 5762 5764 5766 5768 5769 5770 5771 5772 5773 5774 5774 5775 5776 5777 5778 5779 5780 5781 5783 5784 5785 5785 5786 5786 5786 5787 5787 5787 5787 5787 5788 5788 5788 5787 5787 5788 5788 5789 5789 5789 5790 5791 5791 5792 5792 5792 5792 5792 5792 5792 5793 5794 5794 5793 5794 5795 5796 5797
5747 5747 5746 5746 5746 5746 5746 5746 5745 5745 5745 5744 5744 5744 5744 5744 5745 5746 5746 5747 5748 5748 5748 5748 5751 5755 5756 5757 5758 5758 5760 5763 5765 5766 5767 5767 5768 5770 5771 5772 5774 5775 5776 5777 5777 5778 5779 5781 5782 5783 5784 5784 5785 5785 5785 5785 5785 5785 5786 5786 5787 5786 5785 5785 5786 5787 5787 5788 5788 5789 5789 5790 5790 5790 5790 5790 5791 5791 5791 5791 5792 5792 5792 5792 5793 5794 5794
5742 5742 5742 5742 5742 5742 5742 5742 5741 5741 5740 5740 5740 5740 5739 5740 5741 5741 5741 5743 5744 5744 5743 5744 5748 5751 5752 5752 5753 5755 5757 5760 5761 5762 5763 5764 5766 5767 5767 5769 5772 5773 5774 5775 5775 5776 5777 5778 5780 5781 5782 5782 5783 5783 5783 5784 5784 5784 5785 5784 5785 5784 5784 5784 5785 5786 5786 5786 5786 5787 5788 5788 5788 5789 5789 5789 5788 5789 5789 5790 5790 5790 5790 5790 5790 5791 5792
5738 5738 5738 5738 5738 5737 5737 5737 5737 5737 5736 5736 5735 5735 5735 5736 5736 5737 5737 5739 5740 5740 5740 5741 5744 5745 5745 5747 5749 5751 5754 5756 5757 5757 5760 5762 5762 5762 5764 5768 5770 5770 5772 5773 5773 5774 5775 5776 5778 5779 5780 5781 5781 5781 5781 5782 5782 5782 5783 5783 5783 5783 5783 5783 5784 5785 5785 5785 5785 5785 5786 5786 5786 5787 5787 5787 5787 5786 5787 5787 5787 5787 5788 5788 5788 5788 5789
5734 5733 5733 5733 5733 5733 5733 5733 5733 5732 5732 5732 5731 5731 5731 5732 5732 5733 5733 5734 5735 5736 5737 5738 5739 5740 5741 5743 5745 5747 5750 5752 5752 5754 5757 5759 5758 5759 5762 5765 5766 5768 5769 5770 5771 5772 5774 5775 5776 5776 5777 5779 5779 5779 5778 5780 5780 5780 5780 5782 5782 5782 5782 5782 5783 5783 5783 5783 5782 5783 5783 5784 5784 5784 5784 5785 5785 5785 5785 5785 5785 5785 5785 5785 5786 5786 5786
5729 5729 5729 5729 5728 5728 5728 5728 5728 5728 5728 5727 5727 5727 5727 5728 5728 5729 5729 5730 5731 5732 5733 5734 5735 5737 5739 5741 5743 5745 5747 5748 5749 5751 5753 5754 5754 5756 5759 5762 5764 5765 5767 5767 5768 5770 5772 5772 5773 5774 5776 5777 5777 5777 5777 5778 5779 5778 5779 5780 5780 5780 5779 5780 5780 5781 5781 5781 5780 5781 5781 5782 5782 5782 5782 5783 5783 5783 5783 5783 5783 5783 5783 5783 5783 5783 5784
5725 5725 5724 5724 5724 5724 5724 5724 5724 5724 5723 5723 5723 5723 5723 5723 5724 5725 5725 5726 5727 5728 5730 5730 5731 5733 5735 5737 5740 5742 5744 5745 5747 5748 5750 5750 5751 5753 5756 5759 5761 5762 5763 5765 5766 5768 5769 5770 5771 5773 5775 5776 5775 5775 5776 5777 5777 5776 5777 5778 5778 5778 5777 5777 5778 5778 5779 5779 5779 5779 5779 5779 5780 5780 5780 5780 5781 5781 5781 5781 5781 5781 5781 5781 5781 5781 5781
5720 5720 5720 5720 5720 5720 5719 5719 5719 5719 5719 5719 5719 5718 5719 5720 5721 5721 5721 5722 5723 5725 5726 5727 5728 5730 5732 5735 5737 5739 5740 5742 5744 5745 5746 5748 5748 5750 5753 5756 5758 5759 5761 5763 5764 5765 5766 5768 5769 5771 5773 5773 5773 5774 5775 5775 5775 5775 5775 5776 5776 5776 5776 5776 5776 5776 5777 5777 5776 5776 5777 5777 5778 5778 5778 5778 5778 5778 5779 5778 5778 5778 5778 5778 5778 5778 5778
5716 5716 5716 5716 5716 5716 5715 5715 5715 5715 5715 5715 5714 5714 5715 5716 5716 5717 5717 5719 5720 5721 5722 5724 5726 5728 5730 5732 5735 5737 5738 5740 5742 5743 5744 5745 5746 5748 5751 5753 5755 5756 5758 5760 5762 5763 5764 5766 5767 5770 5771 5771 5771 5772 5773 5773 5773 5774 5774 5774 5774 5774 5774 5774 5774 5774 5774 5775 5774 5774 5774 5774 5775 5775 5775 5775 5774 5775 5775 5775 5775 5775 5775 5775 5775 5774 5774
5712 5712 5712 5712 5712 5712 5712 5712 5712 5711 5711 5711 5711 5711 5712 5712 5712 5713 5714 5716 5717 5718 5719 5721 5723 5725 5727 5730 5732 5735 5736 5738 5739 5740 5741 5743 5744 5746 5748 5750 5752 5754 5756 5758 5760 5761 5762 5764 5766 5767 5768 5768 5769 5770 5771 5772 5772 5772 5772 5772 5772 5772 5772 5773 5772 5772 5772 5772 5772 5771 5771 5771 5771 5771 5772 5772 5772 5772 5772 5772 5772 5772 5771 5771 5772 5771 5771
5708 5708 5708 5708 5708 5709 5709 5709 5708 5708 5708 5708 5708 5708 5709 5709 5710 5711 5712 5712 5713 5714 5716 5718 5720 5723 5725 5728 5730 5732 5734 5735 5736 5738 5739 5740 5742 5744 5746 5748 5750 5753 5755 5756 5757 5758 5759 5761 5763 5765 5766 5767 5768 5769 5769 5770 5770 5770 5770 5770 5770 5770 5771 5771 5771 5771 5770 5769 5769 5769 5768 5768 5768 5768 5768 5768 5768 5768 5768 5768 5769 5769 5768 5767 5767 5768 5768
5704 5704 5705 5705 5705 5705 5705 5705 5705 5705 5705 5705 5705 5705 5706 5706 5707 5708 5708 5709 5710 5712 5714 5716 5719 5721 5723 5726 5728 5730 5731 5733 5734 5736 5737 5738 5739 5742 5744 5746 5748 5750 5751 5752 5754 5756 5757 5759 5761 5763 5764 5765 5766 5767 5767 5768 5768 5768 5768 5768 5768 5768 5769 5769 5769 5769 5768 5767 5766 5766 5766 5765 5765 5764 5764 5764 5765 5765 5764 5764 5764 5765 5765 5764 5764 5764 5765
5700 5701 5701 5701 5702 5702 5702 5702 5702 5702 5702 5702 5702 5702 5703 5704 5704 5705 5706 5707 5708 5710 5712 5714 5717 5719 5721 5723 5726 5727 5728 5730 5732 5733 5734 5735 5737 5739 5741 5743 5746 5747 5749 5750 5752 5754 5755 5757 5759 5760 5761 5763 5764 5764 5765 5766 5766 5766 5767 5767 5767 5767 5767 5767 5766 5766 5765 5765 5764 5763 5763 5762 5762 5761 5761 5761 5761 5761 5761 5761 5761 5761 5761 5760 5760 5760 5760
5697 5697 5698 5698 5699 5699 5700 5700 5699 5699 5699 5699 5699 5699 5700 5701 5702 5703 5704 5705 5706 5709 5710 5712 5715 5717 5719 5721 5723 5724 5726 5728 5729 5730 5731 5733 5735 5737 5739 5741 5743 5745 5746 5748 5750 5751 5753 5755 5756 5758 5759 5761 5762 5762 5763 5764 5765 5765 5765 5765 5765 5765 5764 5764 5764 5763 5763 5762 5761 5761 5760 5759 5759 5758 5758 5757 5757 5757 5757 5757 5757 5757 5757 5756 5756 5755 5755
5694 5694 5695 5695 5696 5697 5697 5697 5696 5696 5696 5696 5696 5697 5698 5699 5700 5701 5702 5703 5705 5707 5708 5711 5713 5715 5717 5718 5720 5721 5723 5726 5727 5728 5729 5731 5733 5735 5737 5739 5741 5743 5744 5746 5747 5749 5751 5753 5754 5755 5757 5758 5759 5760 5761 5762 5762 5763 5763 5763 5763 5762 5762 5761 5761 5760 5760 5759 5758 5758 5757 5756 5756 5755 5754 5754 5754 5754 5754 5753 5753 5753 5753 5752 5752 5752 5751
5690 5691 5692 5692 5693 5694 5694 5693 5693 5694 5694 5694 5695 5695 5696 5697 5698 5699 5700 5702 5703 5705 5707 5709 5711 5713 5714 5716 5718 5720 5721 5723 5724 5725 5727 5729 5731 5733 5735 5737 5739 5741 5742 5743 5745 5747 5749 5750 5751 5753 5754 5756 5757 5758 5759 5759 5759 5760 5761 5761 5761 5760 5759 5758 5758 5757 5757 5756 5756 5755 5754 5753 5752 5752 5751 5751 5751 5750 5750 5750 5749 5749 5748 5748 5748 5747 5746
5687 5688 5689 5690 5690 5691 5691 5691 5691 5691 5691 5692 5693 5693 5694 5695 5696 5697 5699 5700 5702 5704 5706 5708 5710 5711 5712 5714 5716 5718 5719 5721 5722 5724 5726 5728 5730 5732 5733 5735 5737 5738 5740 5741 5743 5745 5746 5748 5749 5751 5752 5753 5755 5756 5756 5756 5757 5758 5758 5758 5758 5757 5756 5755 5755 5754 5753 5753 5753 5752 5751 5750 5749 5748 5748 5747 5747 5747 5746 5746 5746 5745 5744 5744 5743 5742 5741
5684 5685 5686 5687 5687 5687 5688 5688 5688 5689 5689 5690 5691 5691 5692 5693 5694 5696 5697 5699 5701 5703 5704 5706 5707 5708 5710 5712 5714 5716 5718 5719 5721 5723 5724 5726 5728 5729 5731 5733 5735 5736 5738 5739 5741 5743 5744 5746 5747 5749 5750 5751 5752 5753 5754 5754 5755 5755 5755 5755 5754 5753 5753 5752 5752 5751 5750 5750 5749 5749 5748 5747 5746 5745 5744 5744 5743 5743 5742 5742 5741 5741 5740 5739 5738 5737 5737
5682 5682 5683 5684 5684 5685 5685 5686 5686 5686 5687 5688 5689 5690 5691 5692 5693 5694 5696 5698 5699 5701 5702 5704 5705 5706 5709 5711 5712 5714 5716 5718 5720 5721 5723 5724 5726 5727 5729 5731 5733 5734 5736 5738 5740 5741 5742 5743 5745 5747 5748 5749 5750 5751 5751 5751 5752 5752 5752 5751 5751 5750 5749 5749 5749 5748 5747 5746 5746 5745 5744 5744 5743 5742 5741 5741 5740 5739 5738 5737 5737 5736 5735 5734 5733 5732 5731
5679 5680 5681 5681 5682 5683 5683 5683 5684 5684 5685 5686 5687 5688 5689 5690 5691 5693 5695 5696 5697 5698 5700 5702 5703 5705 5707 5708 5710 5712 5714 5716 5718 5719 5721 5723 5724 5726 5727 5729 5731 5732 5734 5736 5738 5738 5739 5741 5743 5745 5746 5747 5747 5748 5749 5749 5749 5749 5749 5748 5747 5747 5746 5746 5746 5745 5744 5743 5743 5742 5741 5740 5739 5738 5738 5737 5736 5735 5734 5733 5732 5731 5730 5729 5728 5727 5726
5676 5677 5678 5679 5680 5680 5680 5681 5681 5682 5684 5684 5685 5686 5687 5689 5690 5692 5693 5694 5695 5697 5699 5700 5701 5703 5704 5706 5708 5710 5712 5714 5716 5718 5719 5721 5723 5724 5725 5727 5729 5731 5733 5734 5735 5736 5738 5739 5741 5743 5744 5744 5745 5745 5746 5747 5747 5746 5746 5745 5744 5744 5743 5743 5742 5742 5741 5740 5739 5738 5737 5736 5736 5735 5734 5733 5732 5731 5730 5729 5728 5727 5726 5724 5723 5722 5721
5674 5675 5676 5676 5677 5677 5678 5679 5680 5681 5682 5683 5683 5685 5686 5687 5689 5690 5691 5693 5694 5695 5697 5698 5699 5701 5703 5704 5706 5708 5711 5712 5714 5716 5717 5719 5721 5722 5724 5726 5727 5729 5730 5731 5733 5734 5736 5737 5738 5741 5742 5742 5742 5743 5743 5743 5743 5742 5742 5741 5741 5740 5740 5739 5739 5738 5737 5737 5736 5735 5734 5733 5731 5731 5730 5728 5727 5726 5725 5724 5723 5722 5721 5720 5718 5717 5716
5671 5672 5673 5674 5675 5675 5675 5676 5678 5679 5680 5680 5681 5683 5684 5686 5687 5689 5690 5691 5693 5694 5695 5696 5698 5699 5701 5702 5704 5707 5709 5711 5712 5714 5716 5717 5719 5720 5722 5724 5725 5726 5728 5729 5730 5732 5733 5734 5736 5738 5740 5739 5739 5739 5740 5739 5739 5739 5739 5738 5738 5737 5736 5736 5735 5734 5734 5733 5732 5731 5730 5729 5727 5726 5725 5724 5723 5722 5720 5719 5718 5717 5716 5715 5713 5712 5710
5669 5670 5671 5672 5672 5673 5674 5675 5676 5676 5677 5678 5679 5681 5683 5684 5686 5687 5689 5690 5691 5692 5693 5695 5696 5697 5699 5701 5703 5705 5707 5709 5711 5713 5714 5716 5717 5719 5721 5722 5723 5724 5725 5726 5728 5730 5730 5731 5733 5735 5737 5737 5736 5736 5736 5736 5736 5736 5736 5735 5734 5734 5733 5732 5731 5730 5730 5729 5728 5727 5726 5725 5724 5722 5721 5720 5719 5718 5716 5715 5713 5712 5710 5709 5707 5706 5704
5667 5668 5669 5670 5670 5671 5672 5673 5673 5674 5676 5677 5679 5680 5682 5683 5685 5686 5687 5688 5689 5690 5692 5693 5694 5695 5697 5699 5701 5703 5705 5707 5709 5711 5712 5714 5716 5717 5718 5719 5720 5722 5723 5725 5726 5727 5727 5728 5730 5732 5733 5733 5733 5733 5733 5733 5733 5732 5732 5732 5731 5730 5729 5729 5728 5727 5726 5725 5724 5723 5722 5721 5720 5719 5717 5716 5715 5713 5712 5710 5708 5707 5705 5703 5702 5700 5698
5665 5666 5667 5667 5668 5669 5670 5670 5672 5674 5675 5677 5678 5679 5681 5682 5684 5685 5686 5687 5688 5689 5690 5692 5693 5694 5696 5698 5700 5702 5704 5705 5707 5709 5710 5712 5713 5715 5716 5717 5719 5720 5721 5722 5723 5724 5724 5725 5727 5728 5729 5729 5730 5730 5730 5730 5729 5729 5729 5729 5728 5727 5726 5725 5724 5724 5722 5721 5720 5719 5718 5716 5715 5714 5712 5711 5709 5708 5706 5705 5703 5701 5700 5698 5696 5694 5692
5663 5664 5665 5665 5666 5667 5668 5670 5671 5673 5674 5676 5677 5678 5680 5681 5683 5684 5685 5686 5687 5688 5689 5691 5692 5694 5695 5697 5699 5700 5702 5704 5705 5707 5708 5710 5711 5713 5714 5716 5717 5718 5719 5719 5720 5720 5721 5723 5725 5725 5725 5726 5726 5726 5726 5726 5726 5726 5726 5725 5724 5724 5723 5722 5721 5720 5718 5717 5716 5714 5713 5712 5710 5709 5707 5705 5704 5702 5701 5699 5698 5696 5694 5692 5690 5688 5686
5661 5662 5662 5663 5664 5665 5667 5669 5670 5671 5673 5674 5676 5677 5678 5680 5681 5682 5683 5685 5686 5687 5688 5690 5691 5693 5694 5696 5697 5699 5701 5702 5704 5705 5706 5708 5709 5711 5712 5714 5715 5715 5715 5716 5716 5718 5719 5721 5721 5722 5722 5722 5722 5722 5723 5722 5722 5722 5722 5721 5721 5720 5719 5718 5716 5715 5714 5712 5711 5710 5708 5707 5705 5704 5702 5700 5698 5697 5695 5694 5692 5690 5688 5686 5685 5683 5680
5658 5659 5660 5661 5662 5664 5666 5668 5669 5670 5671 5673 5674 5675 5677 5678 5679 5680 5682 5683 5684 5685 5687 5688 5690 5691 5693 5695 5696 5697 5699 5700 5701 5703 5704 5706 5708 5709 5710 5711 5712 5712 5712 5713 5714 5716 5717 5718 5718 5719 5719 5719 5719 5719 5719 5719 5719 5718 5718 5718 5717 5716 5715 5714 5712 5711 5709 5708 5707 5706 5704 5702 5701 5699 5697 5695 5693 5692 5690 5689 5687 5685 5683 5681 5679 5677 5674
5656 5657 5657 5659 5661 5663 5664 5666 5668 5669 5670 5672 5673 5674 5675 5677 5678 5679 5680 5682 5683 5684 5685 5687 5688 5689 5691 5693 5694 5696 5697 5698 5699 5701 5703 5704 5706 5707 5708 5709 5709 5709 5710 5711 5712 5713 5715 5716 5716 5716 5715 5715 5716 5716 5716 5716 5716 5715 5715 5714 5713 5712 5711 5709 5708 5707 5705 5704 5703 5701 5700 5698 5696 5694 5692 5690 5688 5686 5685 5683 5681 5679 5677 5675 5673 5671 5669